User: anonymous   Login
Location: Wawayanda State Park
(41.1833°N, 74.4333°W)
Time: 10:12:06
(UTC-04:00)
Language:

RESURS DK-1 - Orbit

View from above orbital plane
View from above orbital plane
View from above satellite
View from above satellite

Ground track
Ground track

The orbit data is extracted from the following two-line orbital elements,

1 29228U 06021A   17081.93959061 +.00000191 +00000-0 +21881-4 0  9996
2 29228 069.9358 317.5052 0002283 149.7204 210.4088 15.02112399595140
Epoch (UTC): 22 March 2017 22:33:00
Eccentricity: 0.0002283
inclination: 69.9358°
perigee height: 559 km
apogee height: 562 km
right ascension of ascending node: 317.5052°
argument of perigee: 149.7204°
revolutions per day: 15.02112399
mean anomaly at epoch: 210.4088°
orbit number at epoch: 59514

The dashed part of the orbit path shows where the satellite is in the earth's shadow,  

DLR